User: anonymous   Login
Location: L�Adrech
(44.2500°N, 6.4167°E)
Time: 03:03:37
(UTC+00:00)
Language:

STARLINK-1009 - Orbit

View from above orbital plane
View from above orbital plane
View from above satellite
View from above satellite

Ground track
Ground track

The orbit data is extracted from the following two-line orbital elements,

1 44715U 19074C   20221.91667824 -.00024153  00000-0 -16431-2 0  9996
2 44715  52.9982 339.0259 0001078 110.9064 280.2315 15.05603228 41633
Epoch (UTC): 08 August 2020 22:00:01
Eccentricity: 0.0001078
inclination: 52.9982°
perigee height: 549 km
apogee height: 550 km
right ascension of ascending node: 339.0259°
argument of perigee: 110.9064°
revolutions per day: 15.05603228
mean anomaly at epoch: 280.2315°
orbit number at epoch: 4163

The dashed part of the orbit path shows where the satellite is in the earth's shadow,  

DLR